Adelanto, California, United States (92301)
Lat: 34.58N, Lon: 117.41W
Wx Zone: CAZ060
Local Info
Past Weather Observations for Yesterday

NOTE: This archive is for the closest National Weather Service station to Adelanto. Information may differ from the station used for current weather conditions.

Click here for Long-term Archive

Time Weather Temperature Dewpoint Humidity Pressure Winds Precip Visibility
23:55
Overcast
48°F / 9°C 45°F / 7°C 87% 29.89 in
(1012 mb)
S 4.6 mph
(S 7 kph)
- 10SM
23:35
Mostly Cloudy
48°F / 9°C 45°F / 7°C 87% 29.89 in
(1012 mb)
SSE 5.8 mph
(SSE 9 kph)
- 10SM
23:15
Partly Cloudy
50°F / 10°C 45°F / 7°C 82% 29.89 in
(1012 mb)
SSE 5.8 mph
(SSE 9 kph)
- 10SM
22:55
Partly Cloudy
50°F / 10°C 45°F / 7°C 82% 29.89 in
(1012 mb)
SSE 5.8 mph
(SSE 9 kph)
- 10SM
22:35
Partly Cloudy
50°F / 10°C 45°F / 7°C 82% 29.89 in
(1012 mb)
SSE 5.8 mph
(SSE 9 kph)
- 10SM
22:15
Mostly Cloudy
50°F / 10°C 45°F / 7°C 82% 29.89 in
(1012 mb)
SE 5.8 mph
(SE 9 kph)
- 10SM
21:55
Mostly Cloudy
50°F / 10°C 45°F / 7°C 82% 29.89 in
(1012 mb)
SE 6.9 mph
(SE 11 kph)
- 10SM
21:35
Partly Cloudy
50°F / 10°C 45°F / 7°C 82% 29.92 in
(1013 mb)
SE 8.1 mph
(SE 13 kph)
- 10SM
21:15
Clear
50°F / 10°C 45°F / 7°C 82% 29.89 in
(1012 mb)
SSE 9.2 mph
(SSE 15 kph)
- 10SM
20:55
Clear
50°F / 10°C 45°F / 7°C 82% 29.89 in
(1012 mb)
SSE 6.9 mph
(SSE 11 kph)
- 10SM
20:35
Partly Cloudy
50°F / 10°C 45°F / 7°C 82% 29.89 in
(1012 mb)
SSE 8.1 mph
(SSE 13 kph)
- 10SM
20:15
Mostly Cloudy
50°F / 10°C 45°F / 7°C 82% 29.89 in
(1012 mb)
SSE 9.2 mph
(SSE 15 kph)
- 10SM
19:55
Partly Cloudy
52°F / 11°C 46°F / 8°C 82% 29.89 in
(1012 mb)
SSE 6.9 mph
(SSE 11 kph)
- 10SM
18:35
Partly Cloudy
52°F / 11°C 46°F / 8°C 82% 29.89 in
(1012 mb)
Calm - 10SM
18:15
Partly Cloudy
50°F / 10°C 46°F / 8°C 88% 29.89 in
(1012 mb)
Calm - 10SM
17:55
Partly Cloudy
52°F / 11°C 46°F / 8°C 82% 29.89 in
(1012 mb)
Calm - 10SM
15:55
Overcast
Drizzle
52°F / 11°C 46°F / 8°C 82% 29.89 in
(1012 mb)
Calm - 10SM
15:35
Mostly Cloudy
52°F / 11°C 46°F / 8°C 82% 29.89 in
(1012 mb)
SE 4.6 mph
(SE 7 kph)
- 10SM
15:15
Mostly Cloudy
Light Rain
52°F / 11°C 45°F / 7°C 77% 29.89 in
(1012 mb)
Calm - 10SM
14:55
Overcast
Heavy Rain
50°F / 10°C 45°F / 7°C 82% 29.89 in
(1012 mb)
SE 3.5 mph
(SE 6 kph)
- 2SM
14:35
Overcast
Light Rain
54°F / 12°C 46°F / 8°C 77% 29.89 in
(1012 mb)
ENE 6.9 mph
(ENE 11 kph)
- 10SM
14:15
Overcast
Drizzle
55°F / 13°C 45°F / 7°C 67% 29.89 in
(1012 mb)
Calm - 7SM
13:55
Overcast
55°F / 13°C 43°F / 6°C 63% 29.89 in
(1012 mb)
Calm - 10SM
13:35
Mostly Cloudy
55°F / 13°C 43°F / 6°C 63% 29.89 in
(1012 mb)
Calm - 10SM
13:15
Partly Cloudy
55°F / 13°C 45°F / 7°C 67% 29.89 in
(1012 mb)
SE 3.5 mph
(SE 6 kph)
- 10SM
12:55
Partly Cloudy
55°F / 13°C 45°F / 7°C 67% 29.92 in
(1013 mb)
Calm - 10SM
12:35
Mostly Cloudy
55°F / 13°C 45°F / 7°C 67% 29.92 in
(1013 mb)
SE 4.6 mph
(SE 7 kph)
- 10SM
12:15
Overcast
Light Rain
55°F / 13°C 45°F / 7°C 67% 29.92 in
(1013 mb)
SE 5.8 mph
(SE 9 kph)
- 10SM
11:55
Overcast
55°F / 13°C 45°F / 7°C 67% 29.95 in
(1014 mb)
E 4.6 mph
(E 7 kph)
- 10SM
11:35
Mostly Cloudy
55°F / 13°C 43°F / 6°C 63% 29.95 in
(1014 mb)
Calm - 10SM
11:15
Mostly Cloudy
55°F / 13°C 43°F / 6°C 63% 29.95 in
(1014 mb)
Calm - 10SM
10:55
Overcast
55°F / 13°C 45°F / 7°C 67% 29.98 in
(1015 mb)
Calm - 10SM
10:35
Overcast
54°F / 12°C 45°F / 7°C 72% 29.98 in
(1015 mb)
Calm - 10SM
10:15
Overcast
52°F / 11°C 46°F / 8°C 82% 29.98 in
(1015 mb)
Calm - 10SM
09:55
Overcast
52°F / 11°C 46°F / 8°C 82% 29.98 in
(1015 mb)
Calm - 10SM
09:35
Overcast
52°F / 11°C 46°F / 8°C 82% 29.98 in
(1015 mb)
Calm - 10SM
09:15
Overcast
50°F / 10°C 46°F / 8°C 88% 29.98 in
(1015 mb)
Calm - 10SM
08:55
Overcast
50°F / 10°C 46°F / 8°C 88% 29.98 in
(1015 mb)
Calm - 10SM
08:35
Overcast
50°F / 10°C 46°F / 8°C 88% 29.98 in
(1015 mb)
WNW 3.5 mph
(WNW 6 kph)
- 10SM
08:15
Mostly Cloudy
48°F / 9°C 46°F / 8°C 94% 30.01 in
(1016 mb)
Calm - 10SM
07:55
Mostly Cloudy
Drizzle
48°F / 9°C 46°F / 8°C 94% 30.01 in
(1016 mb)
Calm - 10SM
07:35
Mostly Cloudy
Drizzle
48°F / 9°C 46°F / 8°C 94% 30.01 in
(1016 mb)
Calm - 10SM
07:15
Overcast
48°F / 9°C 46°F / 8°C 94% 30.01 in
(1016 mb)
Calm - 10SM
06:55
Overcast
48°F / 9°C 46°F / 8°C 94% 30.01 in
(1016 mb)
Calm - 10SM
06:35
Overcast
48°F / 9°C 46°F / 8°C 94% 30.01 in
(1016 mb)
W 4.6 mph
(W 7 kph)
- 10SM
06:15
Overcast
48°F / 9°C 46°F / 8°C 94% 30.01 in
(1016 mb)
SSW 4.6 mph
(SSW 7 kph)
- 10SM
05:55
Overcast
48°F / 9°C 45°F / 7°C 87% 30.01 in
(1016 mb)
SSW 5.8 mph
(SSW 9 kph)
- 10SM
05:35
Overcast
48°F / 9°C 45°F / 7°C 87% 30.01 in
(1016 mb)
SSW 3.5 mph
(SSW 6 kph)
- 10SM
05:15
Overcast
48°F / 9°C 45°F / 7°C 87% 30.01 in
(1016 mb)
SSW 3.5 mph
(SSW 6 kph)
- 10SM
04:55
Overcast
48°F / 9°C 45°F / 7°C 87% 30.01 in
(1016 mb)
SSW 4.6 mph
(SSW 7 kph)
- 10SM
04:35
Overcast
48°F / 9°C 45°F / 7°C 87% 30.01 in
(1016 mb)
SSW 4.6 mph
(SSW 7 kph)
- 10SM
04:15
Overcast
48°F / 9°C 45°F / 7°C 87% 30.01 in
(1016 mb)
Calm - 10SM
03:55
Overcast
50°F / 10°C 45°F / 7°C 82% 30.01 in
(1016 mb)
W 4.6 mph
(W 7 kph)
- 10SM
03:35
Overcast
48°F / 9°C 45°F / 7°C 87% 30.04 in
(1017 mb)
Calm - 10SM
03:15
Overcast
48°F / 9°C 45°F / 7°C 87% 30.04 in
(1017 mb)
Calm - 10SM
02:55
Overcast
48°F / 9°C 45°F / 7°C 87% 30.04 in
(1017 mb)
W 3.5 mph
(W 6 kph)
- 10SM
02:35
Overcast
50°F / 10°C 45°F / 7°C 82% 30.04 in
(1017 mb)
SSW 4.6 mph
(SSW 7 kph)
- 10SM
02:15
Overcast
Drizzle
48°F / 9°C 45°F / 7°C 87% 30.04 in
(1017 mb)
W 4.6 mph
(W 7 kph)
- 10SM
01:55
Overcast
Drizzle
50°F / 10°C 43°F / 6°C 76% 30.04 in
(1017 mb)
Calm - 10SM
01:35
Overcast
50°F / 10°C 45°F / 7°C 82% 30.06 in
(1018 mb)
Calm - 10SM
01:15
Overcast
50°F / 10°C 43°F / 6°C 76% 30.06 in
(1018 mb)
Calm - 10SM
00:55
Overcast
Drizzle
50°F / 10°C 43°F / 6°C 76% 30.06 in
(1018 mb)
Calm - 10SM
00:35
Overcast
Drizzle
50°F / 10°C 45°F / 7°C 82% 30.06 in
(1018 mb)
Calm - 10SM
00:15
Overcast
Light Rain
52°F / 11°C 43°F / 6°C 72% 30.06 in
(1018 mb)
Calm - 10SM
Time Weather Temperature Dewpoint Humidity Pressure Winds Precip Visibility


Weather for websites

WeatherForYou.com, LLC is not responsible for any damages or problems caused by this service. Current weather conditions are obtained from the closest station including government and personal stations which may have varying degrees of accuracy. Weather forecasts are derived from the NOAA NDFD. Like all things, this site belongs to Jesus Christ... He just trusts me to maintain it. If you have any questions or comments email webmaster@weatherforyou.com

Copyright © 2015, WeatherForYou.com LLC. All rights reserved.